EN

Hourly Weather Troickoe

Today, 18 April, Sunday

Time Temperature Precipitation Wind Pressure Humidity
00:00 0°C° 0 mm 1 mps 746 mmHg 90%
01:00 0°C° 0 mm 1 mps 745 mmHg 89%
02:00 0°C° 0 mm 1 mps 745 mmHg 89%
03:00 0°C° 0 mm 1 mps 745 mmHg 89%
04:00 0°C° 0 mm 1 mps 745 mmHg 88%
05:00 -2°C° 0 mm 2 mps 745 mmHg 88%
06:00 -4°C° 0 mm 2 mps 744 mmHg 94%
07:00 -2°C° 0 mm 2 mps 744 mmHg 91%
08:00 +1°C° 0 mm 2 mps 744 mmHg 89%
09:00 +2°C° 0 mm 2 mps 744 mmHg 86%
10:00 +2°C° 0 mm 3 mps 743 mmHg 82%
11:00 +3°C° 0 mm 3 mps 743 mmHg 77%
12:00 +4°C° 0 mm 3 mps 743 mmHg 72%
13:00 +5°C° 0 mm 3 mps 742 mmHg 71%
14:00 +7°C° 0 mm 3 mps 742 mmHg 70%
15:00 +7°C° 0 mm 3 mps 741 mmHg 68%
16:00 +7°C° 0 mm 3 mps 740 mmHg 69%
17:00 +5°C° 0 mm 3 mps 740 mmHg 69%
18:00 +5°C° 0 mm 3 mps 739 mmHg 70%
19:00 +5°C° 0 mm 4 mps 738 mmHg 71%
20:00 +5°C° 0 mm 4 mps 737 mmHg 73%
21:00 +3°C° 0 mm 5 mps 736 mmHg 74%
22:00 +5°C° 0 mm 6 mps 736 mmHg 69%
23:00 +6°C° 0 mm 7 mps 735 mmHg 64%

Tomorrow, 19 April, Monday

Time Temperature Precipitation Wind Pressure Humidity
00:00 +7°C° 0 mm 8 mps 734 mmHg 59%
01:00 +6°C° 0.3 mm 8 mps 733 mmHg 68%
02:00 +5°C° 0.3 mm 7 mps 733 mmHg 76%
03:00 +5°C° 0.3 mm 7 mps 733 mmHg 85%
04:00 +2°C° 0.6 mm 7 mps 735 mmHg 81%
05:00 -1°C° 0.6 mm 8 mps 736 mmHg 77%
06:00 -5°C° 0.6 mm 8 mps 737 mmHg 73%
07:00 -5°C° 0 mm 8 mps 739 mmHg 69%
08:00 -6°C° 0 mm 7 mps 740 mmHg 64%
09:00 -6°C° 0 mm 6 mps 742 mmHg 59%
10:00 -5°C° 0 mm 6 mps 743 mmHg 56%
11:00 -4°C° 0 mm 5 mps 744 mmHg 53%
12:00 -3°C° 0 mm 4 mps 744 mmHg 50%
13:00 -2°C° 0 mm 4 mps 745 mmHg 48%
14:00 -2°C° 0 mm 4 mps 745 mmHg 46%
15:00 0°C° 0 mm 3 mps 745 mmHg 45%
16:00 -1°C° 0 mm 3 mps 745 mmHg 45%
17:00 -1°C° 0 mm 3 mps 745 mmHg 46%
18:00 -2°C° 0 mm 4 mps 745 mmHg 47%
19:00 -3°C° 0 mm 4 mps 745 mmHg 50%
20:00 -4°C° 0 mm 4 mps 746 mmHg 53%
21:00 -5°C° 0 mm 4 mps 746 mmHg 57%
22:00 -5°C° 0 mm 4 mps 746 mmHg 55%
23:00 -6°C° 0 mm 3 mps 746 mmHg 53%

Day after tomorrow, 20 April, Tuesday

Time Temperature Precipitation Wind Pressure Humidity
00:00 -6°C° 0 mm 3 mps 747 mmHg 51%
01:00 -6°C° 0 mm 3 mps 747 mmHg 52%
02:00 -6°C° 0 mm 3 mps 747 mmHg 52%
03:00 -7°C° 0 mm 3 mps 747 mmHg 53%
04:00 -7°C° 0 mm 3 mps 747 mmHg 52%
05:00 -7°C° 0 mm 3 mps 747 mmHg 52%
06:00 -7°C° 0 mm 3 mps 747 mmHg 52%
07:00 -7°C° 0 mm 3 mps 747 mmHg 48%
08:00 -6°C° 0 mm 3 mps 747 mmHg 44%
09:00 -6°C° 0 mm 3 mps 748 mmHg 41%
10:00 -5°C° 0 mm 3 mps 747 mmHg 38%
11:00 -4°C° 0 mm 3 mps 747 mmHg 36%
12:00 -2°C° 0 mm 3 mps 747 mmHg 33%
13:00 -2°C° 0 mm 3 mps 747 mmHg 32%
14:00 -2°C° 0 mm 3 mps 747 mmHg 32%
15:00 -1°C° 0 mm 3 mps 747 mmHg 31%
16:00 -1°C° 0 mm 3 mps 747 mmHg 33%
17:00 -2°C° 0 mm 3 mps 747 mmHg 35%
18:00 -2°C° 0 mm 3 mps 747 mmHg 36%
19:00 -2°C° 0 mm 2 mps 747 mmHg 42%
20:00 -3°C° 0 mm 2 mps 748 mmHg 47%
21:00 -4°C° 0 mm 2 mps 748 mmHg 52%
22:00 -2°C° 0 mm 1 mps 748 mmHg 53%
23:00 -2°C° 0 mm 1 mps 748 mmHg 54%

21 April, Wednesday

Time Temperature Precipitation Wind Pressure Humidity
00:00 -2°C° 0 mm 1 mps 748 mmHg 54%
01:00 -2°C° 0 mm 1 mps 747 mmHg 54%
02:00 -2°C° 0 mm 1 mps 747 mmHg 53%
03:00 -3°C° 0 mm 0 mps 747 mmHg 52%
04:00 -2°C° 0 mm 1 mps 747 mmHg 50%
05:00 -2°C° 0 mm 1 mps 747 mmHg 49%
06:00 -2°C° 0 mm 1 mps 747 mmHg 47%
07:00 -1°C° 0 mm 1 mps 747 mmHg 43%
08:00 0°C° 0 mm 1 mps 747 mmHg 40%
09:00 0°C° 0 mm 1 mps 746 mmHg 37%
10:00 +1°C° 0 mm 1 mps 746 mmHg 35%
11:00 +2°C° 0 mm 1 mps 746 mmHg 33%
12:00 +2°C° 0 mm 1 mps 746 mmHg 31%
13:00 +3°C° 0 mm 1 mps 746 mmHg 31%
14:00 +3°C° 0 mm 1 mps 745 mmHg 32%
15:00 +3°C° 0 mm 1 mps 745 mmHg 32%
16:00 +3°C° 0 mm 1 mps 745 mmHg 34%
17:00 +3°C° 0 mm 1 mps 746 mmHg 37%
18:00 +3°C° 0 mm 1 mps 746 mmHg 40%
19:00 +2°C° 0 mm 1 mps 746 mmHg 46%
20:00 -1°C° 0 mm 2 mps 746 mmHg 51%
21:00 -2°C° 0 mm 2 mps 747 mmHg 57%
22:00 -2°C° 0 mm 2 mps 747 mmHg 57%
23:00 -2°C° 0 mm 2 mps 747 mmHg 57%

22 April, Thursday

Time Temperature Precipitation Wind Pressure Humidity
00:00 -2°C° 0 mm 2 mps 747 mmHg 57%
01:00 -2°C° 0 mm 2 mps 748 mmHg 60%
02:00 -2°C° 0 mm 2 mps 748 mmHg 62%
03:00 -2°C° 0 mm 2 mps 748 mmHg 64%
04:00 -2°C° 0 mm 2 mps 749 mmHg 65%
05:00 -2°C° 0 mm 2 mps 749 mmHg 65%
06:00 -2°C° 0 mm 3 mps 750 mmHg 66%
07:00 -1°C° 0 mm 3 mps 750 mmHg 61%
08:00 0°C° 0 mm 3 mps 751 mmHg 56%
09:00 0°C° 0 mm 3 mps 751 mmHg 51%
10:00 +1°C° 0 mm 3 mps 752 mmHg 50%
11:00 0°C° 0 mm 4 mps 752 mmHg 48%
12:00 +1°C° 0 mm 4 mps 752 mmHg 47%
13:00 +1°C° 0.1 mm 4 mps 753 mmHg 52%
14:00 +1°C° 0.1 mm 4 mps 753 mmHg 56%
15:00 +1°C° 0.1 mm 4 mps 753 mmHg 61%
16:00 +1°C° 0.1 mm 4 mps 754 mmHg 62%
17:00 0°C° 0.1 mm 4 mps 754 mmHg 63%
18:00 +1°C° 0.1 mm 3 mps 755 mmHg 64%
19:00 0°C° 0 mm 4 mps 755 mmHg 66%
20:00 -1°C° 0 mm 4 mps 756 mmHg 67%
21:00 -1°C° 0 mm 5 mps 756 mmHg 69%
22:00 -2°C° 0 mm 5 mps 756 mmHg 71%
23:00 -2°C° 0 mm 5 mps 756 mmHg 73%

23 April, Friday

Time Temperature Precipitation Wind Pressure Humidity
00:00 -4°C° 0 mm 5 mps 756 mmHg 75%
01:00 -3°C° 0 mm 4 mps 756 mmHg 74%
02:00 -3°C° 0 mm 4 mps 756 mmHg 74%
03:00 -3°C° 0 mm 4 mps 756 mmHg 74%
04:00 -3°C° 0 mm 4 mps 757 mmHg 73%
05:00 -3°C° 0 mm 4 mps 757 mmHg 71%
06:00 -3°C° 0 mm 4 mps 757 mmHg 70%
07:00 -2°C° 0 mm 4 mps 757 mmHg 63%
08:00 -1°C° 0 mm 4 mps 757 mmHg 57%
09:00 +1°C° 0 mm 4 mps 757 mmHg 50%
10:00 +1°C° 0 mm 4 mps 757 mmHg 47%
11:00 +3°C° 0 mm 4 mps 756 mmHg 45%
12:00 +4°C° 0 mm 4 mps 756 mmHg 42%
13:00 +5°C° 0 mm 4 mps 756 mmHg 42%
14:00 +5°C° 0 mm 4 mps 755 mmHg 41%
15:00 +5°C° 0 mm 4 mps 755 mmHg 41%
16:00 +4°C° 0.2 mm 4 mps 755 mmHg 57%
17:00 +3°C° 0.2 mm 3 mps 755 mmHg 73%
18:00 +2°C° 0.2 mm 3 mps 755 mmHg 89%
19:00 +1°C° 0.2 mm 3 mps 755 mmHg 90%
20:00 +1°C° 0.2 mm 3 mps 755 mmHg 91%
21:00 +1°C° 0.2 mm 3 mps 755 mmHg 92%
22:00 +1°C° 0.1 mm 3 mps 754 mmHg 92%
23:00 +1°C° 0.1 mm 2 mps 754 mmHg 92%
Show more

We Need Your Consent

Meteoprog and our Service Providers may store and access personal data such as cookies, device identifiers or other similar technologies on your device and process such data to personalise content and ads, as well as provide social media features and to analyse the traffic.

  • Store and/or access information on your device

    Cookies, device identifiers or other information can be stored or accessed on your device for the purposes indicated above.

  • Personalised ads and content, ad and content measurement, audience insights, and products development

    Ads and content can be personalised based on a profile. More data can be added to better personalise ads and content. Ad and content performance can be measured. Insights about the audience who saw the ads and content can be derived. Such data can be used to develop or improve user’s experience, systems and software.

By clicking ‘I Agree’ you will allow the use of indicated cookies, device identifiers, web beacons or other similar technologies. Your settings can be changed in the browser on your device.

For certain purposes, legitimate interests may be relied on, rather than consent. You can read more about this in our Privacy and Cookie Policy.